Change the Weather History Date:

Wednesday, November 19, 2014

  Actual Average Record
Temperature  
Mean Temperature 28 °F -  
Max Temperature 35 °F 42 °F 55 °F (2004)
Min Temperature 21 °F 30 °F 17 °F (2005)
Degree Days  
Heating Degree Days 37    
Moisture  
Dew Point 11 °F    
Average Humidity 52    
Maximum Humidity 86    
Minimum Humidity 30    
Precipitation  
Precipitation 0.00 in - - ()
Sea Level Pressure  
Sea Level Pressure 29.95 in    
Wind  
Wind Speed 13 mph (West)    
Max Wind Speed 21 mph    
Max Gust Speed 28 mph    
Visibility 10 miles    
Events      
Averages and records for this station are not official NWS values.
T = Trace of Precipitation, MM = Missing Value Source: NWS Daily Summary

Daily Weather History Graph

Daily Weather History Graph

Search for Another Location

Airport or City:

Trip Planner

Search our weather history database for the weather conditions in past years. The results will help you decide how hot, cold, wet, or windy it might be!

Date:

Astronomy

Nov. 19, 2014 Rise Set
Actual Time 6:36 AM EST 4:06 PM EST
Civil Twilight 6:05 AM EST 4:38 PM EST
Nautical Twilight 5:29 AM EST 5:13 PM EST
Astronomical Twilight 4:55 AM EST 5:47 PM EST
Moon 3:22 AM EST (11/19) 2:38 PM EST (11/19)
Length of Visible Light 10h 32m
Length of Day
9h 29m
Waning Crescent, 9% of the Moon is Illuminated
Nov 19
Waning Crescent
Nov 22
New
Nov 29
First Quarter
Dec 6
Full
Dec 14
Last Quarter

Hourly Weather History & Observations

Time (EST) Temp. Windchill Dew Point Humidity Pressure Visibility Wind Dir Wind Speed Gust Speed Precip Events Conditions
12:15 AM 26.6 °F 15.2 °F 6.8 °F 43% 29.77 in 10.0 mi SW 13.8 mph 21.9 mph N/A   Clear
12:35 AM 26.6 °F 13.8 °F 6.8 °F 43% 29.77 in 10.0 mi WSW 17.3 mph 24.2 mph N/A   Clear
12:55 AM 24.8 °F 11.1 °F 6.8 °F 46% 29.76 in 10.0 mi WSW 18.4 mph 25.3 mph N/A   Clear
1:15 AM 24.8 °F 10.7 °F 8.6 °F 50% 29.76 in 10.0 mi WSW 19.6 mph 27.6 mph N/A   Clear
1:35 AM 24.8 °F 11.5 °F 8.6 °F 50% 29.77 in 10.0 mi WSW 17.3 mph 21.9 mph N/A   Clear
1:55 AM 24.8 °F 11.5 °F 8.6 °F 50% 29.77 in 10.0 mi WSW 17.3 mph 23.0 mph N/A   Clear
2:15 AM 24.8 °F 12.9 °F 8.6 °F 50% 29.77 in 10.0 mi WSW 13.8 mph 23.0 mph N/A   Clear
2:35 AM 24.8 °F 11.9 °F 8.6 °F 50% 29.77 in 10.0 mi WSW 16.1 mph 23.0 mph N/A   Clear
2:55 AM 26.6 °F 13.8 °F 8.6 °F 47% 29.78 in 10.0 mi WSW 17.3 mph 23.0 mph N/A   Clear
3:15 AM 24.8 °F 11.5 °F 8.6 °F 50% 29.78 in 10.0 mi WSW 17.3 mph 25.3 mph N/A   Clear
3:35 AM 24.8 °F 13.4 °F 8.6 °F 50% 29.78 in 10.0 mi WSW 12.7 mph - N/A   Clear
3:55 AM 24.8 °F 12.4 °F 8.6 °F 50% 29.79 in 10.0 mi WSW 15.0 mph 24.2 mph N/A   Clear
4:15 AM 24.8 °F 11.5 °F 8.6 °F 50% 29.80 in 10.0 mi WSW 17.3 mph 26.5 mph N/A   Clear
4:35 AM 24.8 °F 12.9 °F 8.6 °F 50% 29.81 in 10.0 mi WSW 13.8 mph 23.0 mph N/A   Clear
4:55 AM 24.8 °F 11.9 °F 8.6 °F 50% 29.82 in 10.0 mi WSW 16.1 mph - N/A   Clear
5:15 AM 24.8 °F 11.1 °F 8.6 °F 50% 29.82 in 10.0 mi WSW 18.4 mph 25.3 mph N/A   Clear
5:35 AM 24.8 °F 11.5 °F 8.6 °F 50% 29.84 in 10.0 mi WSW 17.3 mph 21.9 mph N/A   Clear
5:55 AM 24.8 °F 13.4 °F 8.6 °F 50% 29.84 in 10.0 mi WSW 12.7 mph 23.0 mph N/A   Clear
6:15 AM 24.8 °F 13.4 °F 8.6 °F 50% 29.86 in 10.0 mi WSW 12.7 mph - N/A   Clear
6:35 AM 24.8 °F 12.4 °F 8.6 °F 50% 29.86 in 10.0 mi WSW 15.0 mph - N/A   Clear
6:55 AM 24.8 °F 12.4 °F 10.4 °F 54% 29.88 in 10.0 mi WSW 15.0 mph 21.9 mph N/A   Clear
7:15 AM 24.8 °F 11.5 °F 10.4 °F 54% 29.89 in 10.0 mi WSW 17.3 mph 20.7 mph N/A   Clear
7:35 AM 26.6 °F 14.3 °F 10.4 °F 51% 29.91 in 10.0 mi WSW 16.1 mph 23.0 mph N/A   Clear
7:55 AM 26.6 °F 14.7 °F 10.4 °F 51% 29.92 in 10.0 mi WSW 15.0 mph 20.7 mph N/A   Clear
8:15 AM 26.6 °F 15.2 °F 10.4 °F 51% 29.93 in 10.0 mi WSW 13.8 mph 24.2 mph N/A   Clear
8:35 AM 26.6 °F 13.8 °F 12.2 °F 55% 29.94 in 10.0 mi West 17.3 mph 23.0 mph N/A   Clear
8:55 AM 28.4 °F 18.0 °F 10.4 °F 47% 29.96 in 10.0 mi West 12.7 mph 21.9 mph N/A   Clear
9:15 AM 28.4 °F 17.0 °F 12.2 °F 51% 29.96 in 10.0 mi West 15.0 mph 18.4 mph N/A   Clear
9:35 AM 28.4 °F 16.2 °F 12.2 °F 51% 29.98 in 10.0 mi West 17.3 mph 24.2 mph N/A   Clear
9:55 AM 28.4 °F 17.5 °F 12.2 °F 51% 29.98 in 10.0 mi West 13.8 mph 24.2 mph N/A   Clear
10:15 AM 30.2 °F 17.8 °F 12.2 °F 47% 29.99 in 10.0 mi West 19.6 mph - N/A   Clear
10:35 AM 30.2 °F 18.5 °F 12.2 °F 47% 30.00 in 10.0 mi West 17.3 mph 25.3 mph N/A   Clear
10:55 AM 32.0 °F 20.5 °F 14.0 °F 48% 30.00 in 10.0 mi West 18.4 mph 24.2 mph N/A   Clear
11:15 AM 32.0 °F 21.6 °F 12.2 °F 44% 30.00 in 10.0 mi West 15.0 mph 24.2 mph N/A   Clear
11:35 AM 33.8 °F 23.5 °F 12.2 °F 41% 30.00 in 10.0 mi West 16.1 mph 23.0 mph N/A   Clear
11:55 AM 33.8 °F 23.5 °F 12.2 °F 41% 30.01 in 10.0 mi West 16.1 mph 20.7 mph N/A   Clear
12:15 PM 33.8 °F 22.5 °F 12.2 °F 41% 30.00 in 10.0 mi West 19.6 mph 25.3 mph N/A   Clear
12:35 PM 33.8 °F 22.2 °F 12.2 °F 41% 30.01 in 10.0 mi West 20.7 mph 26.5 mph N/A   Clear
12:55 PM 33.8 °F 23.2 °F 12.2 °F 41% 30.01 in 10.0 mi West 17.3 mph 20.7 mph N/A   Clear
1:15 PM 35.6 °F 25.9 °F 12.2 °F 38% 30.02 in 10.0 mi West 16.1 mph 19.6 mph N/A   Clear
1:35 PM 35.6 °F 26.6 °F 10.4 °F 35% 30.02 in 10.0 mi West 13.8 mph 19.6 mph N/A   Clear
1:55 PM 35.6 °F 26.6 °F 10.4 °F 35% 30.03 in 10.0 mi West 13.8 mph 19.6 mph N/A   Clear
2:15 PM 35.6 °F 26.6 °F 8.6 °F 33% 30.02 in 10.0 mi West 13.8 mph - N/A   Clear
2:35 PM 35.6 °F 25.5 °F 6.8 °F 30% 30.02 in 10.0 mi West 17.3 mph 20.7 mph N/A   Clear
2:55 PM 35.6 °F 26.2 °F 8.6 °F 33% 30.03 in 10.0 mi West 15.0 mph - N/A   Clear
3:15 PM 33.8 °F 27.0 °F 6.8 °F 32% 30.04 in 10.0 mi West 8.1 mph - N/A   Clear
3:35 PM 33.8 °F 30.8 °F 6.8 °F 32% 30.04 in 10.0 mi WNW 3.5 mph - N/A   Clear
3:55 PM 33.8 °F 28.6 °F 8.6 °F 35% 30.04 in 10.0 mi West 5.8 mph - N/A   Clear
4:15 PM 30.2 °F 26.7 °F 8.6 °F 40% 30.05 in 10.0 mi West 3.5 mph - N/A   Clear
4:35 PM 30.2 °F - 10.4 °F 44% 30.06 in 10.0 mi Calm Calm - N/A   Clear
4:55 PM 28.4 °F - 12.2 °F 51% 30.06 in 10.0 mi Calm Calm - N/A   Clear
5:15 PM 26.6 °F - 14.0 °F 59% 30.06 in 10.0 mi Calm Calm - N/A   Clear
5:35 PM 26.6 °F - 10.4 °F 51% 30.07 in 10.0 mi Calm Calm - N/A   Clear
5:55 PM 26.6 °F - 14.0 °F 59% 30.08 in 10.0 mi Calm Calm - N/A   Clear
6:15 PM 24.8 °F - 12.2 °F 59% 30.08 in 10.0 mi Calm Calm - N/A   Clear
6:35 PM 24.8 °F - 14.0 °F 64% 30.08 in 10.0 mi Calm Calm - N/A   Clear
6:55 PM 21.2 °F - 14.0 °F 74% 30.08 in 10.0 mi Calm Calm - N/A   Clear
7:15 PM 23.0 °F - 15.8 °F 74% 30.07 in 10.0 mi Calm Calm - N/A   Clear
7:35 PM 23.0 °F - 15.8 °F 74% 30.07 in 10.0 mi Calm Calm - N/A   Mostly Cloudy
7:55 PM 23.0 °F 18.4 °F 15.8 °F 74% 30.06 in 10.0 mi West 3.5 mph - N/A   Scattered Clouds
8:15 PM 23.0 °F - 15.8 °F 74% 30.06 in 10.0 mi Calm Calm - N/A   Mostly Cloudy
8:35 PM 23.0 °F - 15.8 °F 74% 30.05 in 10.0 mi Calm Calm - N/A   Mostly Cloudy
8:55 PM 23.0 °F - 17.6 °F 80% 30.06 in 10.0 mi Calm Calm - N/A   Overcast
9:15 PM 24.8 °F - 15.8 °F 69% 30.06 in 10.0 mi Calm Calm - N/A   Overcast
9:35 PM 24.8 °F - 21.2 °F 86% 30.05 in 10.0 mi Calm Calm - N/A   Mostly Cloudy
9:55 PM 24.8 °F 20.5 °F 19.4 °F 80% 30.05 in 10.0 mi West 3.5 mph - N/A   Scattered Clouds
10:15 PM 24.8 °F 19.1 °F 17.6 °F 74% 30.05 in 10.0 mi West 4.6 mph - N/A   Mostly Cloudy
10:35 PM 26.6 °F 22.6 °F 15.8 °F 64% 30.04 in 10.0 mi WNW 3.5 mph - N/A   Mostly Cloudy
10:55 PM 26.6 °F - 17.6 °F 69% 30.04 in 10.0 mi Calm Calm - N/A   Overcast
11:15 PM 28.4 °F - 14.0 °F 55% 30.03 in 10.0 mi Calm Calm - N/A   Overcast
11:35 PM 28.4 °F 23.3 °F 17.6 °F 64% 30.03 in 10.0 mi West 4.6 mph - N/A   Mostly Cloudy
11:55 PM 28.4 °F 24.6 °F 14.0 °F 55% 30.03 in 10.0 mi West 3.5 mph - N/A   Overcast